Weather History for Tapachula Airport, Mexico

Change the Weather History Date:

Tuesday, October 30, 2012

  Actual Average Record
Temperature  
Mean Temperature 81 °F -  
Max Temperature 87 °F 86 °F 96 °F (2011)
Min Temperature 75 °F 73 °F 68 °F (2006)
Cooling Degree Days 16    
Growing Degree Days 31 (Base 50)    
Moisture  
Dew Point 74 °F    
Average Humidity 80    
Maximum Humidity 94    
Minimum Humidity 66    
Precipitation  
Precipitation 0.00 in - - ()
Sea Level Pressure  
Sea Level Pressure 29.90 in    
Wind  
Wind Speed 3 mph ()    
Max Wind Speed 14 mph    
Max Gust Speed -    
Visibility 9.8 miles    
Events      
Averages and records for this station are not official NWS values.
T = Trace of Precipitation, MM = Missing Value Source: Averaged Metar Reports

Daily Weather History Graph

Daily Weather History Graph

Search for Another Location

Airport:

Trip Planner

Search our weather history database for the weather conditions in past years. The results will help you decide how hot, cold, wet, or windy it might be!

Date:

Astronomy

Oct. 30, 2012 Rise Set
Actual Time 6:04 AM CST 5:41 PM CST
Civil Twilight 5:42 AM CST 6:03 PM CST
Nautical Twilight 5:17 AM CST 6:28 PM CST
Astronomical Twilight 4:51 AM CST 6:54 PM CST
Moon 6:24 PM CST (10/30) 6:40 AM CST (10/30)
Length of Visible Light 12h 20m
Length of Day
11h 36m
Full, 99% of the Moon is Illuminated
Oct 30
Full
Nov 6
Last Quarter
Nov 13
New
Nov 20
First Quarter
Nov 28
Full

Hourly Weather History & Observations

Time (CST) Temp. Heat Index Dew Point Humidity Pressure Visibility Wind Dir Wind Speed Gust Speed Precip Events Conditions
12:40 AM 80.6 °F 85.4 °F 73.4 °F 79% 29.95 in 10.0 mi Calm Calm - N/A   Mostly Cloudy
1:40 AM 80.6 °F 85.4 °F 73.4 °F 79% 29.95 in 10.0 mi Calm Calm - N/A   Mostly Cloudy
2:40 AM 77.0 °F - 73.4 °F 89% 29.85 in 10.0 mi Calm Calm - N/A   Scattered Clouds
3:50 AM 80.6 °F 85.4 °F 73.4 °F 79% 29.95 in 10.0 mi Calm Calm - N/A   Mostly Cloudy
4:40 AM 80.6 °F 85.4 °F 73.4 °F 79% 29.95 in 10.0 mi Calm Calm - N/A   Mostly Cloudy
5:40 AM 75.2 °F - 73.4 °F 94% 29.84 in 10.0 mi Calm Calm - N/A   Mostly Cloudy
6:40 AM 75.2 °F - 73.4 °F 94% 29.94 in 10.0 mi NE 8.1 mph - N/A   Scattered Clouds
7:40 AM 78.8 °F - 71.6 °F 78% 29.95 in 10.0 mi Calm Calm - N/A   Scattered Clouds
8:40 AM 84.2 °F 90.9 °F 73.4 °F 70% 29.92 in 10.0 mi Calm Calm - N/A   Scattered Clouds
9:40 AM 86.0 °F 95.1 °F 75.2 °F 70% 29.98 in 10.0 mi East 5.8 mph - N/A   Scattered Clouds
10:40 AM 87.8 °F 97.6 °F 75.2 °F 66% 29.97 in 10.0 mi Calm Calm - N/A   Mostly Cloudy
11:40 AM 86.0 °F 95.1 °F 75.2 °F 70% 29.90 in 8.0 mi South 6.9 mph - N/A   Mostly Cloudy
12:40 PM 87.8 °F 97.6 °F 75.2 °F 66% 29.93 in 8.0 mi SW 6.9 mph - N/A   Mostly Cloudy
1:46 PM 86.0 °F 95.1 °F 75.2 °F 70% 29.90 in 8.0 mi SW 9.2 mph - N/A   Mostly Cloudy
2:46 PM 86.0 °F 96.9 °F 77.0 °F 74% 29.85 in 10.0 mi WSW 13.8 mph - N/A   Mostly Cloudy
3:40 PM 86.0 °F 95.1 °F 75.2 °F 70% 29.78 in 10.0 mi WSW 11.5 mph - N/A   Scattered Clouds
4:40 PM 86.0 °F 96.9 °F 77.0 °F 74% 29.88 in 10.0 mi West 10.4 mph - N/A   Mostly Cloudy
5:40 PM 84.2 °F 94.1 °F 77.0 °F 79% 29.79 in 10.0 mi Calm Calm - N/A   Mostly Cloudy
6:40 PM 78.8 °F - 73.4 °F 83% 29.91 in 10.0 mi NE 5.8 mph - N/A   Mostly Cloudy
7:40 PM 77.0 °F - 73.4 °F 89% 29.91 in 10.0 mi East 5.8 mph - N/A   Mostly Cloudy
8:40 PM 77.0 °F - 73.4 °F 89% 29.78 in 10.0 mi East 6.9 mph - N/A   Scattered Clouds
9:40 PM 77.0 °F - 73.4 °F 89% 29.98 in 10.0 mi Calm Calm - N/A   Scattered Clouds
10:40 PM 77.0 °F - 73.4 °F 89% 29.98 in 10.0 mi Calm Calm - N/A   Scattered Clouds
11:40 PM 77.0 °F - 73.4 °F 89% 29.83 in 10.0 mi East 11.5 mph - N/A   Scattered Clouds